Fort Atkinson, Wisconsin, United States (53538)
Lat: 42.93N, Lon: 88.84W
Wx Zone: WIZ064
Local Info
Past Weather Observations for Saturday, October 18, 2014

NOTE: This archive is for the closest National Weather Service station to Fort Atkinson. Information may differ from the station used for current weather conditions.

Click here for Long-term Archive

Time Weather Temperature Dewpoint Humidity Pressure Winds Precip Visibility
23:55
Overcast
46°F / 8°C 41°F / 5°C 82% 29.92 in
(1013 mb)
W 5.8 mph
(W 9 kph)
- 10SM
23:35
Overcast
45°F / 7°C 41°F / 5°C 87% 29.92 in
(1013 mb)
W 5.8 mph
(W 9 kph)
- 10SM
23:15
Overcast
46°F / 8°C 41°F / 5°C 82% 29.92 in
(1013 mb)
W 5.8 mph
(W 9 kph)
- 10SM
22:55
Overcast
45°F / 7°C 41°F / 5°C 87% 29.89 in
(1012 mb)
WNW 3.5 mph
(WNW 6 kph)
- 10SM
22:35
Mostly Cloudy
46°F / 8°C 41°F / 5°C 82% 29.89 in
(1012 mb)
WNW 4.6 mph
(WNW 7 kph)
- 10SM
22:15
Partly Cloudy
46°F / 8°C 41°F / 5°C 82% 29.89 in
(1012 mb)
NW 4.6 mph
(NW 7 kph)
- 10SM
21:55
Mostly Cloudy
46°F / 8°C 41°F / 5°C 82% 29.89 in
(1012 mb)
NNW 6.9 mph
(NNW 11 kph)
- 10SM
21:35
Overcast
48°F / 9°C 43°F / 6°C 82% 29.89 in
(1012 mb)
NNW 8.1 mph
(NNW 13 kph)
- 10SM
21:15
Overcast
48°F / 9°C 43°F / 6°C 82% 29.89 in
(1012 mb)
NNW 9.2 mph
(NNW 15 kph)
- 10SM
20:55
Overcast
48°F / 9°C 43°F / 6°C 82% 29.89 in
(1012 mb)
NNW 10.4 mph
(NNW 17 kph)
- 10SM
20:35
Overcast
48°F / 9°C 45°F / 7°C 87% 29.89 in
(1012 mb)
NW 10.4 mph
(NW 17 kph)
- 10SM
20:15
Overcast
48°F / 9°C 45°F / 7°C 87% 29.86 in
(1011 mb)
NW 9.2 mph
(NW 15 kph)
- 10SM
19:55
Overcast
48°F / 9°C 45°F / 7°C 87% 29.86 in
(1011 mb)
NW 5.8 mph
(NW 9 kph)
- 10SM
19:35
Mostly Cloudy
48°F / 9°C 45°F / 7°C 87% 29.83 in
(1010 mb)
NW 5.8 mph
(NW 9 kph)
- 10SM
19:15
Partly Cloudy
48°F / 9°C 43°F / 6°C 82% 29.83 in
(1010 mb)
NNW 6.9 mph
(NNW 11 kph)
- 10SM
18:55
Overcast
48°F / 9°C 45°F / 7°C 87% 29.8 in
(1009 mb)
NNW 10.4 mph
(NNW 17 kph)
- 10SM
18:35
Overcast
50°F / 10°C 45°F / 7°C 82% 29.8 in
(1009 mb)
NNW 11.5 mph
(NNW 19 kph)
- 10SM
18:15
Overcast
50°F / 10°C 48°F / 9°C 94% 29.8 in
(1009 mb)
NNW 12.7 mph
(NNW 20 kph)
- 10SM
17:55
Overcast
50°F / 10°C 48°F / 9°C 94% 29.77 in
(1008 mb)
NW 9.2 mph
(NW 15 kph)
0.01 in
(0.25 mm)
10SM
17:35
Overcast
50°F / 10°C 50°F / 10°C 100% 29.77 in
(1008 mb)
NW 9.2 mph
(NW 15 kph)
0.01 in
(0.25 mm)
10SM
17:15
Overcast
50°F / 10°C 50°F / 10°C 100% 29.77 in
(1008 mb)
NW 11.5 mph
(NW 19 kph)
0.01 in
(0.25 mm)
7SM
16:55
Overcast
Light Rain
50°F / 10°C 50°F / 10°C 100% 29.74 in
(1007 mb)
NW 15 mph
(NW 24 kph)
- 4SM
16:35
Overcast
Light Rain
52°F / 11°C 48°F / 9°C 88% 29.74 in
(1007 mb)
W 13.8 mph
(W 22 kph)
- 5SM
16:15
Overcast
52°F / 11°C 48°F / 9°C 88% 29.71 in
(1006 mb)
W 9.2 mph
(W 15 kph)
- 10SM
15:55
Overcast
52°F / 11°C 48°F / 9°C 88% 29.71 in
(1006 mb)
W 10.4 mph
(W 17 kph)
- 10SM
15:35
Overcast
52°F / 11°C 48°F / 9°C 88% 29.71 in
(1006 mb)
WNW 11.5 mph
(WNW 19 kph)
- 7SM
15:15
Overcast
54°F / 12°C 48°F / 9°C 82% 29.68 in
(1005 mb)
WNW 12.7 mph
(WNW 20 kph)
- 10SM
14:55
Overcast
54°F / 12°C 48°F / 9°C 82% 29.68 in
(1005 mb)
WNW 19.6 mph
(WNW 32 kph)
- 10SM
14:35
Overcast
54°F / 12°C 48°F / 9°C 82% 29.68 in
(1005 mb)
NW 11.5 mph
(NW 19 kph)
- 10SM
14:15
Overcast
54°F / 12°C 48°F / 9°C 82% 29.65 in
(1004 mb)
WNW 12.7 mph
(WNW 20 kph)
- 10SM
13:55
Overcast
54°F / 12°C 48°F / 9°C 82% 29.65 in
(1004 mb)
WNW 11.5 mph
(WNW 19 kph)
- 10SM
13:35
Overcast
54°F / 12°C 46°F / 8°C 77% 29.65 in
(1004 mb)
NW 18.4 mph
(NW 30 kph)
- 10SM
13:15
Overcast
54°F / 12°C 46°F / 8°C 77% 29.65 in
(1004 mb)
NW 17.3 mph
(NW 28 kph)
- 10SM
12:55
Overcast
55°F / 13°C 46°F / 8°C 72% 29.62 in
(1003 mb)
WNW 12.7 mph
(WNW 20 kph)
- 10SM
12:35
Overcast
55°F / 13°C 46°F / 8°C 72% 29.62 in
(1003 mb)
WNW 12.7 mph
(WNW 20 kph)
- 10SM
12:15
Overcast
55°F / 13°C 46°F / 8°C 72% 29.62 in
(1003 mb)
W 17.3 mph
(W 28 kph)
- 10SM
11:55
Overcast
55°F / 13°C 48°F / 9°C 77% 29.62 in
(1003 mb)
W 16.1 mph
(W 26 kph)
- 10SM
11:35
Overcast
55°F / 13°C 48°F / 9°C 77% 29.62 in
(1003 mb)
WNW 15 mph
(WNW 24 kph)
- 10SM
11:15
Overcast
57°F / 14°C 48°F / 9°C 72% 29.62 in
(1003 mb)
WNW 15 mph
(WNW 24 kph)
- 10SM
10:55
Overcast
57°F / 14°C 50°F / 10°C 77% 29.59 in
(1002 mb)
W 12.7 mph
(W 20 kph)
- 10SM
10:35
Overcast
55°F / 13°C 50°F / 10°C 82% 29.59 in
(1002 mb)
W 12.7 mph
(W 20 kph)
- 10SM
10:15
Overcast
55°F / 13°C 50°F / 10°C 82% 29.59 in
(1002 mb)
W 12.7 mph
(W 20 kph)
- 10SM
09:55
Overcast
55°F / 13°C 50°F / 10°C 82% 29.59 in
(1002 mb)
WNW 16.1 mph
(WNW 26 kph)
- 10SM
09:35
Overcast
55°F / 13°C 50°F / 10°C 82% 29.59 in
(1002 mb)
WNW 16.1 mph
(WNW 26 kph)
- 10SM
09:15
Overcast
55°F / 13°C 50°F / 10°C 82% 29.59 in
(1002 mb)
WNW 17.3 mph
(WNW 28 kph)
- 10SM
08:55
Overcast
55°F / 13°C 50°F / 10°C 82% 29.56 in
(1001 mb)
W 13.8 mph
(W 22 kph)
- 10SM
08:35
Overcast
54°F / 12°C 50°F / 10°C 88% 29.56 in
(1001 mb)
W 10.4 mph
(W 17 kph)
- 10SM
08:15
Overcast
54°F / 12°C 48°F / 9°C 82% 29.56 in
(1001 mb)
W 8.1 mph
(W 13 kph)
- 10SM
07:55
Overcast
52°F / 11°C 48°F / 9°C 88% 29.56 in
(1001 mb)
W 9.2 mph
(W 15 kph)
- 10SM
07:35
Overcast
52°F / 11°C 48°F / 9°C 88% 29.56 in
(1001 mb)
W 12.7 mph
(W 20 kph)
- 10SM
07:15
Mostly Cloudy
52°F / 11°C 48°F / 9°C 88% 29.56 in
(1001 mb)
W 9.2 mph
(W 15 kph)
- 10SM
06:55
Partly Cloudy
50°F / 10°C 46°F / 8°C 88% 29.53 in
(1000 mb)
W 9.2 mph
(W 15 kph)
- 10SM
06:35
Clear
50°F / 10°C 46°F / 8°C 88% 29.53 in
(1000 mb)
W 9.2 mph
(W 15 kph)
- 10SM
06:15
Clear
48°F / 9°C 46°F / 8°C 94% 29.53 in
(1000 mb)
SSW 6.9 mph
(SSW 11 kph)
- 10SM
05:55
Clear
48°F / 9°C 46°F / 8°C 94% 29.53 in
(1000 mb)
SSW 8.1 mph
(SSW 13 kph)
- 10SM
05:35
Clear
50°F / 10°C 46°F / 8°C 88% 29.53 in
(1000 mb)
SSW 5.8 mph
(SSW 9 kph)
- 10SM
05:15
Clear
48°F / 9°C 46°F / 8°C 94% 29.53 in
(1000 mb)
SSW 5.8 mph
(SSW 9 kph)
- 10SM
04:55
Clear
48°F / 9°C 46°F / 8°C 94% 29.53 in
(1000 mb)
SSW 4.6 mph
(SSW 7 kph)
- 10SM
04:35
Clear
48°F / 9°C 45°F / 7°C 87% 29.53 in
(1000 mb)
Calm - 10SM
04:15
Clear
48°F / 9°C 46°F / 8°C 94% 29.53 in
(1000 mb)
SW 3.5 mph
(SW 6 kph)
- 10SM
03:55
Clear
48°F / 9°C 46°F / 8°C 94% 29.53 in
(1000 mb)
SW 4.6 mph
(SW 7 kph)
- 10SM
03:35
Clear
48°F / 9°C 46°F / 8°C 94% 29.53 in
(1000 mb)
SSW 4.6 mph
(SSW 7 kph)
- 10SM
03:15
Clear
48°F / 9°C 46°F / 8°C 94% 29.53 in
(1000 mb)
SSW 3.5 mph
(SSW 6 kph)
- 10SM
02:55
Clear
48°F / 9°C 48°F / 9°C 100% 29.53 in
(1000 mb)
SSW 4.6 mph
(SSW 7 kph)
- 10SM
02:35
Clear
48°F / 9°C 48°F / 9°C 100% 29.53 in
(1000 mb)
SSW 3.5 mph
(SSW 6 kph)
- 10SM
02:15
Clear
50°F / 10°C 48°F / 9°C 94% 29.53 in
(1000 mb)
SSW 3.5 mph
(SSW 6 kph)
- 10SM
01:55
Clear
50°F / 10°C 50°F / 10°C 100% 29.53 in
(1000 mb)
SW 4.6 mph
(SW 7 kph)
- 10SM
01:35
Clear
50°F / 10°C 50°F / 10°C 100% 29.53 in
(1000 mb)
SW 5.8 mph
(SW 9 kph)
- 10SM
01:15
Clear
50°F / 10°C 50°F / 10°C 100% 29.53 in
(1000 mb)
SW 5.8 mph
(SW 9 kph)
- 10SM
00:55
Clear
50°F / 10°C 50°F / 10°C 100% 29.53 in
(1000 mb)
SW 5.8 mph
(SW 9 kph)
- 10SM
00:35
Clear
50°F / 10°C 50°F / 10°C 100% 29.53 in
(1000 mb)
SW 5.8 mph
(SW 9 kph)
- 7SM
00:15
Clear
50°F / 10°C 50°F / 10°C 100% 29.56 in
(1001 mb)
SW 4.6 mph
(SW 7 kph)
- 7SM
Time Weather Temperature Dewpoint Humidity Pressure Winds Precip Visibility


Weather for websites

WeatherForYou.com, LLC is not responsible for any damages or problems caused by this service. Current weather conditions are obtained from the closest station including government and personal stations which may have varying degrees of accuracy. Weather forecasts are derived from the NOAA NDFD. Like all things, this site belongs to Jesus Christ... He just trusts me to maintain it. If you have any questions or comments email webmaster@weatherforyou.com

Copyright © 2014, WeatherForYou.com LLC. All rights reserved.